Theta_e
304 304 305 305 304 304 304 304 304 304 305 305 304 304 305 306 306 306 305 305 305 304 304 304 305 306 306 307 308 309 308 307 306 306 306 308 306 304 302 302 304 308 310 310 312 312 312 312 313 311 309 310 310 311 311 313 316 316 319 319 316 316 315 317 319 318 319 319 318 318 317 318 315 327 349 353 353 354 356 361 354 350 351 349 348 345 343 341
304 304 304 305 304 304 304 304 304 304 304 305 304 304 305 306 306 306 305 305 305 305 305 305 304 305 305 306 307 308 307 305 306 306 308 310 311 309 305 302 302 308 310 311 313 312 312 313 312 311 310 311 310 310 311 313 315 317 321 318 315 316 316 317 318 317 318 318 318 318 316 316 315 321 339 356 359 353 357 361 354 353 351 347 345 343 342 341
305 304 304 304 304 303 304 304 305 305 304 304 304 305 305 305 306 306 305 305 305 305 305 305 305 304 305 306 306 306 306 305 307 309 309 310 312 312 311 308 303 307 309 310 313 312 312 312 310 311 311 311 311 312 312 314 315 317 320 317 316 316 316 316 315 316 317 317 317 318 316 315 317 316 330 354 361 355 357 359 354 355 351 346 344 342 342 341
305 304 304 303 304 304 304 304 304 304 304 304 304 305 305 305 306 305 305 305 305 305 305 305 304 304 304 305 305 305 305 306 307 310 310 308 310 311 314 313 306 305 308 310 311 311 311 309 309 311 311 311 313 313 312 314 315 317 317 317 318 315 315 316 315 317 316 316 315 316 316 316 317 314 335 358 360 359 358 357 356 353 349 345 343 342 342 342
305 304 304 303 303 304 304 304 304 304 304 304 304 305 305 305 305 305 305 305 305 305 305 305 304 304 304 305 305 305 306 305 305 310 310 308 309 309 313 315 310 305 306 311 312 310 310 308 309 311 311 312 313 313 314 314 314 316 316 317 318 314 315 316 315 316 314 316 313 315 315 315 316 315 346 364 354 360 357 352 352 349 348 345 343 344 343 343
304 305 304 303 303 303 304 304 304 304 304 304 304 305 305 305 305 305 305 305 305 305 305 304 304 304 304 304 305 306 306 303 305 309 308 307 308 308 311 314 312 306 305 310 312 310 309 308 309 311 312 313 313 314 315 314 314 316 316 316 317 315 315 315 315 315 315 316 313 316 314 315 317 313 343 361 349 353 351 348 350 347 346 345 343 344 343 343
304 304 305 304 303 303 303 304 304 304 304 304 305 305 305 305 305 305 305 305 305 305 305 304 304 303 303 304 305 306 307 306 305 307 307 307 307 307 309 315 314 307 306 310 310 309 309 308 308 312 313 313 313 313 313 314 313 314 315 315 316 315 315 316 316 315 315 315 314 316 314 317 317 312 342 358 348 346 347 347 347 345 343 342 341 340 341 340
304 304 304 304 303 303 303 303 304 304 304 304 304 305 305 305 305 305 305 305 305 305 304 304 304 303 303 305 304 305 306 306 303 303 305 304 306 306 307 315 316 309 307 310 310 309 309 308 308 311 312 313 313 313 313 314 314 314 314 314 315 314 315 316 316 316 315 315 315 314 315 317 314 324 350 353 344 343 344 344 343 342 341 340 339 339 339 339
304 303 304 304 303 303 303 303 303 304 304 304 304 305 305 305 305 304 304 305 305 305 304 304 303 303 303 305 305 305 305 303 301 302 303 304 306 305 305 310 314 312 309 310 310 308 309 308 308 310 312 313 312 313 313 314 314 314 313 313 314 313 315 315 315 316 315 315 315 314 316 315 315 338 357 347 341 343 341 342 342 340 341 339 339 339 339 342
304 303 304 304 304 303 303 303 303 303 303 303 304 304 304 304 304 304 304 304 304 304 304 304 303 303 303 304 305 305 304 301 303 305 305 306 305 304 304 305 309 310 309 310 310 308 308 308 308 309 311 313 313 313 314 314 314 314 314 313 314 314 314 314 314 315 314 314 315 315 315 314 320 342 358 346 341 342 341 342 341 340 342 339 338 339 339 342
303 303 304 304 304 303 302 302 303 303 304 304 304 304 303 304 304 304 304 304 304 304 304 304 303 303 303 303 304 304 303 301 303 303 304 303 302 301 302 302 304 306 307 309 309 308 309 307 307 309 310 312 312 312 313 313 312 313 314 313 314 313 314 314 314 314 313 314 315 316 314 316 334 351 354 347 343 342 342 342 341 341 340 338 338 339 338 338
303 303 304 304 304 303 302 302 303 303 303 304 303 303 303 303 303 304 304 303 304 304 304 304 304 303 303 303 303 303 301 302 301 300 300 299 299 299 300 301 302 304 306 308 309 309 309 308 307 309 311 311 311 312 312 311 310 312 314 313 313 313 314 313 313 314 312 315 315 316 313 313 340 356 349 345 345 343 342 341 341 340 339 339 338 338 338 337
303 304 304 304 304 304 303 302 302 302 303 303 303 303 303 303 303 303 304 303 303 304 304 304 304 303 303 302 302 301 299 299 298 298 299 299 299 300 300 301 301 302 304 306 308 309 309 309 307 307 309 309 310 311 310 310 309 311 312 313 314 313 314 313 313 314 312 316 314 314 314 311 333 348 344 345 344 342 342 341 340 339 339 339 338 338 338 336
303 303 304 304 304 304 303 302 302 302 303 303 303 303 302 303 303 303 303 303 303 303 304 304 304 303 303 301 300 298 298 299 300 300 300 301 302 301 301 302 302 302 304 306 307 308 308 309 308 307 308 308 309 309 309 310 310 311 312 313 314 313 313 314 314 314 312 315 315 314 312 312 331 343 344 343 341 342 343 341 339 338 338 337 338 338 337 336
303 303 303 304 304 303 303 303 302 302 302 303 302 302 301 301 302 302 302 302 303 303 303 304 304 303 301 300 298 298 301 303 304 303 302 303 303 303 303 304 304 305 306 307 308 308 308 307 307 306 307 308 308 308 310 311 312 311 311 311 312 312 312 313 314 315 313 314 316 313 312 323 340 343 342 341 341 342 342 341 339 338 338 337 338 337 337 337
303 303 303 303 303 303 303 303 302 301 302 302 302 300 300 300 301 300 300 301 302 303 304 304 303 303 302 301 299 301 304 305 305 305 305 305 304 304 304 305 305 306 307 307 308 307 307 306 306 306 306 308 308 309 311 312 313 312 311 312 312 311 311 313 315 314 314 315 315 311 322 345 351 343 340 341 341 340 341 341 339 338 339 338 338 337 337 338
303 302 302 302 303 303 303 303 302 301 302 302 301 300 300 299 300 299 299 301 302 303 303 303 303 302 303 302 301 303 304 304 304 305 305 304 305 305 305 306 306 307 307 307 307 306 306 305 306 306 306 308 309 309 311 312 314 313 311 312 312 311 311 312 314 314 314 314 314 316 337 358 351 342 341 341 340 340 341 341 340 339 339 338 338 338 338 338
303 302 302 302 303 303 303 303 302 301 301 301 301 300 300 299 299 298 299 302 302 302 301 302 302 300 301 302 302 303 302 303 303 303 303 303 305 306 306 307 307 307 306 306 307 306 307 307 307 307 307 307 308 309 311 312 313 312 312 314 312 311 311 311 313 315 313 314 318 326 346 354 346 342 341 340 339 340 340 340 340 340 340 339 339 339 339 339
302 302 302 302 302 302 303 303 303 302 301 301 301 300 299 300 301 301 301 302 302 302 301 301 301 299 298 301 301 301 301 302 303 303 304 305 306 306 306 307 307 307 307 307 308 307 309 310 308 308 307 306 306 307 310 311 312 313 317 317 313 310 311 312 312 314 313 314 317 326 348 352 345 343 341 339 339 338 339 339 340 341 340 340 339 340 339 339
301 302 302 302 302 302 302 303 303 302 301 301 301 301 301 301 304 304 303 303 302 302 301 301 301 300 299 301 300 301 302 302 303 303 304 305 306 307 307 307 307 307 307 308 308 308 310 311 309 308 307 306 307 307 308 310 310 310 315 315 312 311 311 312 313 315 315 313 317 331 351 351 344 343 341 339 339 338 339 339 341 341 341 341 341 341 339 339
301 302 302 302 302 302 302 302 302 302 301 302 301 300 301 301 302 303 302 302 302 301 301 301 301 301 301 301 301 302 302 302 303 303 303 304 306 308 308 307 307 308 307 307 308 308 310 312 311 308 307 307 307 308 308 309 308 309 311 311 312 311 311 314 314 314 312 313 331 342 350 347 342 343 340 338 339 339 340 340 340 341 341 341 340 340 339 338
302 302 302 302 302 302 302 302 302 302 301 301 301 299 300 301 301 302 301 302 302 301 301 301 301 301 301 301 302 301 301 302 303 303 304 305 306 308 308 307 307 308 306 305 307 309 310 311 311 309 309 308 309 309 309 309 309 310 310 311 312 311 313 314 311 323 323 323 344 346 347 347 342 341 338 337 339 338 337 338 338 339 340 340 339 339 339 338
302 302 302 302 302 302 302 302 302 301 301 301 301 300 301 302 302 302 302 303 303 302 302 302 301 301 301 301 301 302 302 302 303 303 303 305 307 307 306 306 307 307 305 305 307 309 311 310 310 311 310 309 309 309 309 309 309 310 311 312 313 312 313 309 312 340 341 336 347 346 345 347 342 341 339 336 337 337 336 336 336 336 337 337 337 337 339 339
303 302 302 302 302 302 302 302 301 301 301 301 301 302 302 302 302 302 302 303 303 303 302 302 301 301 301 301 301 301 302 302 303 303 303 305 307 306 305 306 306 306 306 305 305 308 310 309 310 312 310 309 309 309 310 311 310 310 311 312 313 312 311 311 321 345 348 341 343 343 345 349 345 344 343 338 338 337 336 337 336 335 335 335 336 336 338 338
303 303 303 302 302 302 302 301 301 301 301 301 301 302 302 302 303 302 302 303 302 302 301 301 301 302 301 301 301 302 302 302 302 303 303 304 305 305 305 305 306 307 306 305 305 306 308 309 310 311 311 310 309 309 309 310 311 311 311 311 313 312 311 320 332 340 346 346 344 338 338 346 347 346 345 342 342 340 337 338 337 336 335 335 337 337 337 337
303 303 303 302 302 302 302 301 301 301 301 301 302 302 302 302 303 302 301 302 302 301 301 301 301 301 301 301 301 301 302 303 303 303 303 304 305 306 306 305 306 307 306 305 306 306 307 308 310 310 311 310 309 309 308 309 311 311 313 311 312 312 310 324 335 329 332 341 344 333 326 339 348 346 345 344 344 343 340 339 338 336 336 336 337 337 336 337
303 303 302 302 302 302 302 302 301 301 301 302 302 302 302 302 302 301 301 302 302 302 302 301 299 300 301 301 301 302 304 304 303 303 304 304 305 305 306 305 304 305 304 305 307 308 308 308 308 309 310 310 309 309 308 308 310 311 313 311 312 313 309 320 329 326 331 336 341 338 332 342 348 343 344 344 345 346 342 341 339 337 337 336 336 336 336 336
302 302 302 302 302 302 302 301 301 301 301 302 302 302 302 302 302 301 301 302 301 302 304 301 300 300 301 301 302 302 304 304 304 304 303 304 304 305 307 306 304 304 305 306 308 309 308 307 308 309 309 310 309 309 309 308 310 311 312 312 313 313 311 315 318 318 327 331 336 342 340 344 348 344 345 345 346 347 345 342 340 338 337 336 336 335 335 336
301 301 302 302 302 302 301 301 301 301 301 302 302 302 302 301 301 301 302 303 300 302 306 303 301 302 303 302 302 302 303 304 305 305 303 304 305 305 308 307 305 306 306 306 309 311 309 308 309 308 309 310 308 310 309 308 310 311 312 314 312 312 312 313 313 313 318 320 327 340 340 338 346 347 345 347 348 347 345 342 340 339 337 336 336 335 335 336
301 300 300 301 302 302 301 301 301 301 301 302 303 302 301 302 302 301 302 303 300 301 305 304 303 304 304 303 303 303 303 303 304 304 304 305 305 305 306 307 306 307 306 306 309 310 309 309 310 308 309 310 309 310 309 309 311 311 312 311 310 316 315 312 317 319 318 315 317 333 339 333 338 345 345 347 348 345 344 343 341 340 338 336 335 335 335 335
300 298 299 301 302 302 302 301 301 301 301 303 302 301 302 303 301 300 301 301 300 302 305 305 304 304 305 304 305 305 303 303 303 303 304 306 306 305 307 308 307 308 308 307 308 309 308 309 310 309 309 310 310 309 309 310 312 311 312 311 311 317 315 310 316 316 314 315 316 327 338 332 331 342 345 343 342 342 342 343 342 341 339 337 335 334 334 334
299 298 299 301 302 302 302 301 301 301 301 302 302 303 303 303 301 301 302 300 301 305 306 305 304 305 305 305 305 305 304 304 303 303 304 305 306 306 307 309 309 308 308 307 308 309 309 308 308 309 311 310 310 310 310 309 311 311 312 313 313 314 313 310 313 315 315 319 321 325 335 336 332 338 343 341 341 341 340 341 341 340 339 337 335 334 334 333
299 299 301 302 302 302 302 302 301 301 301 301 303 303 302 302 303 303 302 300 302 305 306 306 306 306 305 305 306 306 304 304 303 303 304 305 307 307 306 308 308 307 309 310 308 309 310 309 308 309 310 310 309 309 309 309 310 310 310 312 313 313 314 313 314 317 318 319 320 322 332 338 332 329 336 339 340 340 339 340 340 340 339 337 336 334 333 333
300 301 302 303 303 302 302 302 301 301 301 302 303 303 301 303 304 303 302 302 302 306 307 307 307 306 305 306 306 306 305 304 303 303 303 304 307 308 307 308 307 307 312 312 309 310 312 312 311 309 309 309 309 309 310 310 310 309 310 312 314 316 316 315 316 317 317 319 319 323 332 336 328 329 336 337 338 340 340 342 342 340 338 336 335 334 334 333
300 302 304 304 303 302 302 301 301 302 302 302 303 302 301 303 303 302 303 305 305 307 306 306 306 306 306 307 307 306 305 306 304 303 303 304 307 308 307 307 307 306 310 312 310 309 310 312 312 309 309 309 308 309 309 311 310 309 310 311 312 316 318 316 319 323 324 323 323 327 335 335 331 337 339 336 339 343 343 345 344 340 337 336 335 334 333 334
301 302 304 304 303 303 302 301 302 302 302 302 303 302 302 303 305 303 304 306 307 307 306 306 306 306 308 310 309 306 305 306 305 304 304 303 305 307 306 307 307 305 308 313 315 312 310 314 314 309 309 309 308 311 309 311 314 311 309 310 310 313 316 316 316 322 326 321 323 333 341 343 342 342 343 340 341 345 345 344 342 339 337 336 335 334 334 335
300 302 304 305 304 304 303 302 302 303 302 302 302 303 302 303 305 304 304 306 306 306 306 307 307 306 308 310 310 307 305 305 305 304 306 305 305 306 306 306 307 306 307 310 314 315 313 317 317 309 308 309 308 311 309 310 315 311 308 310 311 311 319 324 319 321 325 322 325 336 345 349 343 339 343 344 343 345 344 342 341 339 337 336 335 334 334 335
300 302 305 306 305 305 304 302 302 302 302 302 302 303 304 303 304 304 305 306 306 305 307 307 307 306 307 310 311 308 305 306 305 304 306 306 307 307 305 306 307 306 307 306 308 314 313 314 316 311 308 309 308 309 310 310 310 311 309 310 313 313 316 321 321 322 323 323 325 332 340 346 341 339 344 345 343 344 343 341 341 339 337 337 335 335 335 336
300 303 306 306 306 306 303 301 303 303 303 303 302 303 304 304 304 304 305 306 305 306 307 306 307 307 307 308 309 308 307 307 305 304 305 305 307 309 306 306 307 306 307 306 307 314 315 312 315 313 308 308 309 308 310 310 308 309 310 309 315 318 313 313 320 322 321 324 329 331 336 343 343 342 344 343 342 343 341 341 341 339 338 336 335 335 336 337
301 303 305 306 306 305 303 302 303 303 303 303 303 303 303 303 303 305 307 307 305 306 307 307 306 307 308 307 307 308 308 308 306 305 306 306 307 309 306 305 307 306 306 306 306 311 313 312 318 318 310 307 309 309 309 309 308 308 310 311 311 312 312 312 317 320 320 327 333 335 339 344 345 342 341 341 341 341 341 341 340 339 337 336 335 335 336 337
302 304 305 306 306 305 303 303 304 303 303 304 304 304 303 303 304 305 307 307 305 305 306 306 306 307 307 308 307 307 307 309 308 305 306 305 305 308 307 305 307 306 307 307 307 310 312 315 322 321 311 307 309 309 308 309 309 309 311 313 312 313 315 314 314 318 321 325 331 336 339 341 342 341 338 340 340 339 340 340 339 339 337 335 335 335 336 336
303 305 306 305 305 304 304 304 304 304 304 305 304 304 304 304 305 305 306 307 306 306 306 306 306 307 307 307 307 306 307 310 310 307 307 306 305 308 308 306 306 306 308 308 307 313 316 316 318 317 312 310 310 309 310 310 311 310 311 313 314 318 318 314 318 322 319 317 324 329 329 337 344 340 337 339 339 338 338 338 339 338 336 335 335 335 337 336
304 305 305 305 305 304 304 305 305 305 305 305 304 305 305 306 306 306 306 307 307 307 307 307 307 307 307 306 305 306 307 311 312 311 310 308 305 306 307 307 306 306 309 309 309 314 318 314 313 318 317 311 309 309 309 310 310 309 311 313 313 318 320 321 330 331 319 316 321 318 319 336 349 340 337 340 339 338 338 337 338 337 335 335 334 336 337 335
303 303 305 305 305 304 304 305 306 306 306 305 305 305 305 306 306 306 306 306 307 308 308 308 307 307 307 306 306 307 308 311 313 312 311 309 308 307 306 306 306 307 309 311 312 313 316 317 315 316 315 310 311 311 308 309 311 313 317 315 313 319 321 322 327 324 317 320 323 319 320 334 343 336 338 344 341 341 339 337 338 336 334 335 335 336 336 334
303 304 305 305 305 304 305 305 304 305 305 305 305 305 305 305 306 307 306 305 306 307 309 310 308 307 307 306 307 308 308 310 312 313 312 310 310 308 306 305 306 307 308 314 318 314 316 322 320 317 319 316 313 314 312 311 311 314 319 315 313 317 317 319 323 318 316 321 322 322 327 335 340 336 339 345 343 341 341 338 337 336 334 335 335 336 336 334
304 306 305 305 304 304 304 303 302 303 304 304 304 305 305 305 306 307 306 306 306 306 308 309 307 307 308 308 310 311 311 311 311 314 314 312 312 309 305 305 306 307 309 315 322 319 319 325 324 324 325 318 315 319 319 315 312 312 315 312 315 320 319 322 325 321 322 324 322 329 336 337 340 340 340 343 342 341 341 339 337 336 334 335 336 336 335 333
305 307 306 305 304 304 303 303 302 302 303 304 305 306 305 305 306 306 306 307 308 307 308 308 307 308 309 310 311 313 314 313 311 313 313 312 313 309 305 306 305 308 313 314 318 319 317 321 325 327 323 315 317 324 320 313 313 315 313 313 318 325 323 320 323 328 328 322 322 336 342 338 341 341 339 341 341 340 340 338 337 336 335 336 336 335 334 333
305 306 306 305 305 305 305 304 303 303 303 303 304 304 305 306 306 306 307 307 308 308 310 311 310 308 309 309 310 312 315 315 314 315 315 313 315 313 307 305 306 311 316 313 317 323 319 320 324 322 319 317 318 321 317 312 315 317 315 315 319 324 321 316 327 338 330 318 325 338 339 341 343 340 336 338 339 339 338 337 336 336 335 336 336 335 334 333
303 304 304 303 303 304 304 304 303 303 303 304 304 304 305 306 306 306 306 307 310 311 310 312 313 311 309 308 309 312 315 316 316 319 318 315 317 316 311 311 312 314 315 312 316 323 323 326 328 321 319 321 319 320 318 313 312 313 314 317 321 326 325 321 331 337 327 324 339 344 342 347 344 336 333 335 336 337 337 337 337 336 336 336 335 335 334 332
300 301 301 302 302 303 304 304 304 304 305 305 306 306 305 306 307 308 307 307 312 315 312 311 314 313 310 310 311 313 315 315 316 319 318 318 320 318 314 318 318 314 313 313 313 317 320 327 332 329 324 321 322 326 325 319 315 312 311 315 319 323 322 318 323 329 325 328 340 344 344 345 340 335 337 338 337 338 338 337 337 336 336 336 335 335 334 332
298 299 300 301 302 304 307 307 307 306 307 307 308 307 307 307 307 308 309 308 310 313 314 313 315 314 313 314 315 315 315 314 316 318 317 318 321 318 314 316 317 313 312 313 313 316 320 324 330 337 333 321 323 330 330 326 321 315 312 316 319 321 321 319 323 328 327 331 339 339 339 340 338 338 341 340 338 338 338 336 336 335 335 336 335 334 333 332
297 298 299 300 302 305 308 308 307 308 309 310 309 309 310 310 309 310 312 311 309 310 311 312 313 313 315 317 317 317 316 315 316 317 316 316 317 316 313 313 314 313 312 316 317 318 326 330 327 332 334 324 325 335 334 326 319 317 325 330 323 321 324 322 321 324 328 336 344 342 337 337 337 337 340 339 337 337 337 336 335 335 335 335 334 334 333 332
Wind_Speed
14 14 14 14 14 14 14 14 14 14 14 15 15 15 15 15 15 15 15 16 17 18 18 19 20 20 21 21 23 24 27 28 28 26 16 16 21 21 22 19 14 10 8 9 9 5 2 1 2 3 4 3 2 2 2 2 1 2 3 3 4 4 5 5 7 6 4 5 6 7 4 2 8 5 1 3 6 4 5 5 4 6 7 11 20 31 35 34
14 14 14 14 14 14 14 14 14 15 15 16 15 15 16 15 16 15 16 16 17 17 18 19 19 20 20 21 22 24 27 28 26 21 14 13 14 14 17 19 17 12 9 8 6 5 4 2 3 5 4 2 2 2 3 2 3 3 4 4 6 6 6 6 8 6 4 6 8 9 4 0 6 4 0 1 1 1 4 3 5 10 11 15 22 29 31 31
14 15 15 14 14 14 14 14 14 15 15 16 16 16 16 16 15 16 16 16 16 17 18 18 19 20 20 20 21 22 24 24 17 10 4 12 10 9 9 14 18 16 12 9 4 5 5 2 2 5 4 1 1 2 3 3 4 3 3 4 6 5 6 6 6 7 7 8 8 9 5 3 6 3 0 1 2 4 4 3 5 11 13 15 17 22 25 25
15 15 15 15 14 14 14 14 14 15 15 16 16 16 16 16 15 16 16 16 16 17 17 17 19 19 19 20 19 20 20 14 6 3 6 12 10 12 10 9 17 20 16 11 5 3 4 1 1 3 3 2 2 1 4 4 3 3 4 6 6 6 7 7 8 9 8 7 6 6 6 8 7 1 1 4 3 5 4 3 9 14 17 18 16 18 21 21
16 16 16 15 15 15 15 15 15 15 15 16 16 16 15 15 15 16 16 15 16 16 17 17 18 18 19 19 17 17 12 4 1 4 6 12 13 15 13 8 16 23 19 14 7 4 3 0 3 3 2 2 2 2 4 6 3 2 6 7 6 7 6 7 9 9 8 7 5 5 7 8 6 3 3 8 6 5 2 7 15 19 20 20 19 18 18 18
16 16 16 16 16 15 15 15 15 15 15 15 15 15 15 15 16 16 15 16 16 15 16 16 17 17 17 18 16 11 2 2 5 2 4 12 15 19 18 6 15 23 23 17 8 4 4 2 3 2 2 2 5 5 4 5 4 3 5 5 6 7 6 6 6 8 9 7 7 7 6 4 6 8 2 5 3 2 4 12 17 17 18 21 20 16 15 15
15 16 15 16 16 16 15 15 15 15 15 16 15 15 15 16 16 16 16 16 15 14 15 15 16 16 17 17 13 4 2 8 13 5 7 13 15 19 21 8 10 20 22 17 8 5 4 5 5 4 4 3 5 6 4 3 4 6 5 3 5 7 7 6 6 7 8 9 9 5 4 5 7 7 2 5 2 3 8 14 16 15 19 20 17 15 14 14
16 15 15 16 17 16 16 15 15 15 16 16 16 15 15 16 16 16 16 16 15 14 14 14 15 15 15 15 9 2 2 15 23 14 15 18 17 18 19 12 5 16 19 16 11 6 4 6 7 4 4 4 4 5 4 2 4 8 7 2 3 6 7 8 8 8 7 7 6 2 5 9 7 2 4 5 4 6 9 13 16 16 17 17 16 16 15 14
16 16 15 16 17 16 16 16 16 15 16 16 16 16 16 16 16 17 16 16 16 14 14 13 14 14 13 10 5 4 7 16 20 16 17 18 17 16 15 12 3 9 14 15 13 9 6 5 6 4 4 5 4 3 4 5 6 7 7 4 4 5 6 7 8 11 9 5 3 3 8 11 5 4 5 6 6 5 10 13 15 17 16 14 14 15 16 15
16 16 15 16 16 16 16 17 16 16 16 16 16 17 17 16 16 17 17 17 16 14 14 12 12 13 12 8 3 5 8 7 6 7 10 12 16 18 14 10 6 2 6 11 13 10 6 4 6 3 1 2 3 3 5 7 5 3 7 7 8 7 6 5 6 10 8 4 6 6 11 12 4 3 3 5 8 7 11 13 13 16 15 14 12 11 13 13
16 16 16 16 16 16 16 17 17 17 17 17 17 17 17 17 17 17 17 16 15 15 13 12 12 12 10 6 3 7 6 3 5 7 12 18 23 23 18 14 11 9 7 7 11 13 9 7 5 1 1 2 3 3 4 5 4 4 6 6 9 9 9 7 8 9 4 4 8 9 12 11 3 2 6 9 8 7 12 13 11 13 12 12 11 9 9 9
16 16 16 15 16 16 16 17 17 17 17 18 18 18 18 18 17 17 17 16 15 14 12 12 11 10 10 6 9 17 12 10 17 23 26 26 27 25 20 19 15 10 9 6 9 13 15 15 7 1 3 2 1 2 3 4 3 4 5 4 6 6 9 11 11 8 5 4 7 9 9 9 2 0 7 11 7 5 10 11 10 10 9 9 8 7 6 8
16 16 16 16 15 15 15 16 17 17 17 18 18 19 19 18 18 17 17 16 15 14 12 11 11 10 8 4 14 27 25 23 28 32 29 24 24 24 20 18 16 13 11 10 12 13 15 19 11 3 3 1 2 3 3 4 2 3 4 4 4 3 7 10 9 7 7 6 7 8 4 7 4 3 6 9 8 8 9 9 9 8 7 7 6 6 6 7
15 16 17 17 15 14 14 15 16 17 18 18 19 19 19 19 18 18 17 16 15 14 12 11 11 9 4 8 20 27 23 22 27 29 23 20 21 21 18 15 14 12 10 13 15 13 14 18 12 4 4 2 3 5 5 4 1 1 3 4 4 5 6 7 7 8 7 7 7 9 6 7 5 4 6 8 8 10 10 7 7 7 6 6 6 6 6 6
16 17 17 16 15 14 14 14 15 17 18 19 19 20 21 20 19 18 17 15 14 13 12 12 12 7 3 10 20 19 13 11 18 22 18 19 18 15 14 11 9 9 8 11 14 13 13 15 9 3 4 3 3 4 4 3 3 1 4 4 5 6 4 5 5 10 10 6 8 10 5 4 3 4 6 7 7 9 10 9 7 7 7 7 6 5 6 6
17 17 17 16 15 14 14 14 15 17 18 20 21 23 23 22 22 18 15 14 13 12 10 9 8 4 2 6 9 10 7 7 12 16 13 14 14 12 13 11 9 10 8 9 12 12 13 13 5 3 2 2 5 2 2 2 4 2 5 6 6 7 4 4 5 8 12 6 6 9 5 1 3 6 7 6 7 8 9 10 9 8 7 7 6 5 6 5
16 16 17 17 15 14 15 15 16 16 18 21 23 25 24 22 21 16 13 12 12 12 10 8 5 3 6 9 10 8 6 7 11 14 15 15 14 14 11 6 6 8 7 8 8 8 9 9 4 3 4 3 4 5 2 4 7 5 4 5 4 5 6 4 6 4 10 9 7 7 5 2 3 9 9 5 8 9 9 11 11 9 7 7 6 6 6 6
17 17 17 17 16 15 15 16 16 16 18 21 23 26 26 20 16 12 11 10 8 7 7 7 5 2 5 8 8 6 7 12 17 19 21 20 15 16 11 4 2 3 4 5 3 6 5 4 4 3 4 4 4 6 9 9 8 7 5 4 2 3 7 8 6 4 9 10 8 6 4 2 2 9 7 4 7 8 9 11 11 10 8 7 6 6 7 7
18 18 18 18 17 16 15 15 15 17 19 21 24 25 19 10 6 4 5 3 1 1 2 3 5 2 5 7 7 7 14 18 20 17 15 10 9 13 10 4 1 2 0 1 3 5 4 4 5 5 7 11 13 13 11 4 5 7 5 5 5 4 5 8 8 6 9 9 8 8 6 4 7 9 6 6 6 6 7 9 10 10 10 8 7 7 7 7
18 18 19 17 16 16 16 15 14 16 18 20 24 20 9 4 4 2 1 1 4 6 6 4 7 7 10 13 9 11 18 17 11 8 10 7 6 8 5 3 2 2 3 3 4 4 5 4 6 12 14 17 16 12 8 3 2 5 4 4 7 6 4 5 6 6 8 8 6 6 7 8 11 9 6 6 5 5 8 11 11 11 11 9 9 10 8 6
18 18 18 17 17 17 16 15 14 15 17 19 19 10 2 2 2 3 4 5 9 12 12 11 11 12 14 19 16 11 13 12 9 10 16 12 7 9 3 4 4 3 4 3 2 2 5 7 13 15 12 11 9 7 7 7 4 3 3 3 4 5 5 6 6 5 5 6 1 3 8 8 9 6 4 5 6 7 10 13 13 13 10 7 8 10 8 6
18 18 17 18 17 17 17 15 14 16 16 15 11 2 2 4 5 7 5 6 9 11 13 15 14 14 18 26 22 10 5 7 11 13 10 4 8 7 4 6 5 4 4 2 2 3 6 11 13 10 5 6 7 7 9 8 8 3 3 4 2 3 3 5 4 2 1 3 1 4 8 6 5 4 3 5 6 6 7 8 10 12 11 8 8 9 8 8
17 17 17 17 16 16 15 14 15 16 12 11 9 4 4 9 11 12 6 6 9 7 10 12 12 11 16 20 15 8 6 6 7 11 6 3 7 6 5 8 7 5 5 6 7 7 8 8 7 8 7 8 7 7 10 8 7 5 4 5 2 4 2 3 3 4 6 3 5 7 7 4 3 4 3 4 3 3 4 5 4 7 8 9 10 9 10 11
18 18 17 16 16 15 13 15 16 11 8 13 12 7 7 11 10 10 4 4 7 4 8 12 10 9 13 12 8 11 7 6 6 8 5 3 5 5 5 7 7 6 7 10 9 8 6 4 6 10 8 10 8 6 9 7 6 6 5 6 3 4 2 3 3 3 5 5 6 9 5 1 3 4 3 3 3 5 5 5 5 6 6 6 8 8 9 10
19 17 17 16 15 14 15 15 10 6 12 14 9 5 9 10 7 5 2 2 5 4 4 7 5 6 11 7 8 10 4 5 8 8 5 2 4 3 3 5 6 8 11 9 7 7 6 5 7 13 10 10 9 7 9 8 5 5 5 7 7 5 3 2 4 4 5 3 1 5 3 2 3 5 5 5 5 7 7 8 9 8 7 7 8 8 9 8
19 16 16 15 13 15 14 9 5 10 15 9 4 6 8 7 6 1 1 2 4 3 1 1 1 4 6 5 8 5 1 4 10 13 10 6 6 3 3 4 4 8 9 5 3 3 4 6 5 11 12 11 10 9 9 9 6 4 5 9 9 6 3 2 5 4 3 3 4 3 3 3 3 6 7 7 7 7 8 10 11 10 8 9 8 8 10 9
19 16 16 14 13 13 9 5 8 12 9 5 5 8 6 6 4 1 2 2 4 3 0 0 1 2 3 6 10 6 1 4 5 10 12 10 6 2 3 4 3 5 5 4 4 3 7 9 6 8 12 11 11 10 9 10 7 4 6 11 10 7 5 4 4 3 3 3 2 1 3 2 3 6 7 9 9 9 9 11 12 11 10 10 9 9 10 10
19 17 16 14 12 12 10 9 11 8 6 7 8 8 7 5 1 2 3 2 3 1 0 2 1 2 2 5 11 6 3 2 1 5 11 14 9 0 1 5 4 5 7 7 6 3 8 11 9 7 9 10 11 10 9 10 6 4 7 11 10 8 7 6 4 3 1 4 1 4 2 3 3 4 7 9 9 10 13 15 14 13 13 12 11 11 11 11
21 20 18 15 13 13 12 11 9 7 7 9 8 8 7 3 0 1 4 1 3 1 1 2 2 4 3 3 6 5 5 1 1 2 7 12 11 4 1 4 4 4 6 9 6 2 5 11 10 7 8 9 9 7 8 10 6 4 6 8 6 5 5 5 5 3 1 2 5 7 5 3 3 3 7 9 9 12 14 14 13 13 14 13 11 12 11 10
24 23 21 16 14 13 10 11 13 10 7 8 9 9 5 1 2 2 2 1 3 2 1 1 1 3 3 3 2 5 6 4 2 1 3 5 6 5 2 1 3 3 1 4 6 6 4 6 8 7 7 6 6 6 7 10 8 4 6 6 5 3 1 2 2 2 2 3 7 9 10 7 3 4 7 9 12 16 14 11 11 13 14 14 12 12 11 10
27 27 23 17 15 12 7 8 10 6 3 7 9 7 3 2 3 2 1 2 2 2 2 2 1 3 4 4 3 4 4 5 3 1 1 2 5 5 2 1 2 3 1 1 5 9 8 5 6 5 6 6 6 6 6 8 9 5 5 5 3 2 3 3 3 3 2 7 7 8 11 9 6 4 7 13 15 14 14 13 16 18 17 15 13 11 11 10
30 27 23 18 16 14 11 7 4 5 2 7 7 4 2 3 2 2 2 3 3 1 2 2 2 4 6 7 4 4 4 4 2 2 2 2 5 5 4 4 3 3 4 4 5 7 8 6 4 2 6 9 7 6 5 6 8 6 5 6 5 1 1 1 1 1 4 7 5 8 11 7 6 6 10 18 17 13 15 16 18 20 19 16 14 13 11 10
31 26 22 18 16 16 18 14 8 4 4 6 3 3 4 3 1 3 2 2 1 0 1 2 3 5 7 6 4 4 4 3 1 2 2 1 4 5 5 4 3 2 4 5 6 6 5 4 3 4 6 9 10 8 6 6 8 9 6 7 7 4 4 5 4 2 4 6 4 6 9 4 4 5 9 17 19 17 16 15 13 15 16 15 14 12 11 10
30 23 18 14 11 13 15 16 12 7 4 3 2 4 3 1 2 2 2 3 2 2 2 2 6 8 6 4 4 3 3 2 1 3 3 2 3 4 5 7 7 3 3 4 5 6 5 3 6 8 5 9 12 10 7 6 7 8 5 6 5 5 6 6 5 4 4 4 2 2 5 4 3 4 7 11 15 13 9 6 6 7 8 9 9 10 11 11
26 17 12 10 9 10 10 12 11 8 5 1 4 3 1 2 2 2 2 2 1 2 3 5 6 6 4 3 5 4 3 2 3 3 3 4 4 4 5 7 9 5 3 5 4 4 6 5 6 7 5 9 12 8 6 8 6 5 4 6 5 6 5 2 3 6 4 2 1 2 3 4 4 4 6 4 9 9 7 7 8 9 9 9 9 10 11 10
22 13 9 7 7 7 8 12 13 11 7 3 5 1 3 3 3 2 2 1 1 2 6 7 4 3 3 2 3 4 4 3 4 3 2 4 4 5 5 4 6 7 4 4 3 4 6 5 4 5 6 9 11 9 7 7 6 4 4 6 5 5 6 2 2 2 4 3 3 1 2 4 2 4 6 2 9 9 9 9 10 11 12 12 11 11 11 10
20 13 7 6 5 3 8 15 17 13 6 4 3 3 3 3 3 3 1 0 1 1 4 4 1 1 2 2 2 1 4 3 3 4 2 3 4 5 7 5 5 9 9 4 1 2 5 3 5 7 10 8 7 10 8 6 7 6 6 7 4 4 3 3 2 1 3 3 4 1 3 3 1 2 3 4 9 9 10 11 10 11 13 13 12 11 11 10
18 10 5 5 4 3 11 18 19 11 4 2 2 4 3 2 3 2 2 1 1 2 4 3 1 0 1 1 3 1 3 4 4 4 3 3 3 5 9 7 5 9 11 6 1 3 2 2 6 6 10 5 3 8 7 6 7 6 6 7 6 3 3 1 3 2 1 2 3 3 2 2 4 4 3 7 11 11 11 11 12 13 15 14 12 12 12 11
13 4 3 5 3 6 15 20 17 7 2 2 4 4 2 3 4 4 3 2 2 3 4 3 2 1 1 1 2 2 2 3 5 4 3 3 3 5 10 8 5 8 10 8 5 3 1 2 3 4 9 7 3 5 7 7 7 4 4 6 6 5 5 4 3 3 3 3 2 2 3 3 5 5 9 14 15 15 14 13 14 16 16 14 13 13 13 12
7 1 2 5 2 9 18 19 11 3 2 3 3 3 3 4 5 5 5 4 3 3 3 2 2 1 2 2 2 2 2 2 3 4 2 4 4 5 8 9 5 7 8 8 6 3 1 1 3 3 3 7 5 6 9 10 9 5 4 5 6 3 3 4 3 2 3 3 3 2 1 5 6 5 11 15 15 16 17 16 16 15 15 15 13 14 13 12
4 1 1 2 3 15 18 12 4 2 2 3 3 3 4 4 5 6 5 6 5 5 4 3 3 2 2 2 3 2 2 2 2 3 2 5 6 4 6 10 8 5 6 7 6 4 2 2 2 2 2 7 9 7 8 9 8 7 6 5 6 5 4 4 4 1 2 3 3 4 2 7 6 5 10 13 13 15 18 18 16 14 16 16 14 14 13 12
2 1 2 3 9 18 12 3 2 1 3 3 3 4 5 5 5 6 5 5 5 6 5 4 5 4 3 3 2 2 2 2 2 3 2 5 7 6 5 11 12 7 5 6 6 4 3 1 1 3 4 6 6 3 6 10 8 6 6 5 4 4 5 6 5 3 1 2 2 4 2 6 6 4 8 10 11 13 16 16 14 12 14 14 14 14 13 12
1 2 5 4 14 17 5 1 2 1 4 3 4 5 6 5 5 6 4 3 4 5 4 3 5 5 4 4 4 3 3 2 3 4 3 3 7 9 8 11 14 9 4 5 5 2 2 1 2 4 3 1 1 2 4 9 8 4 4 4 5 5 5 6 5 4 5 4 3 3 2 6 6 4 3 5 5 6 8 9 9 9 9 12 14 14 13 12
2 3 3 2 11 11 1 2 3 2 4 4 6 7 6 5 6 7 5 3 3 3 2 3 4 4 4 4 4 4 2 2 3 4 4 2 4 9 10 11 13 10 6 5 4 4 4 2 1 2 2 3 3 2 3 5 6 5 4 4 6 6 7 5 2 3 4 5 6 6 4 6 5 4 2 5 6 5 4 5 7 8 9 11 13 12 12 12
3 2 0 1 4 5 1 1 1 2 4 5 7 8 7 5 5 7 7 5 5 4 2 3 3 3 4 4 4 5 4 4 3 3 2 2 4 5 9 12 12 11 9 6 4 4 5 3 3 3 3 4 6 5 4 4 5 5 5 7 7 6 8 5 3 4 4 3 5 6 5 6 6 3 5 6 7 7 6 6 7 8 10 12 12 12 12 12
3 1 1 2 1 2 2 1 1 2 3 4 5 6 5 4 3 5 6 5 6 6 4 4 4 4 4 4 3 4 4 5 5 4 4 3 4 3 8 13 13 12 13 12 4 4 2 2 3 6 7 7 7 6 4 3 5 4 5 8 6 4 6 6 4 4 5 4 4 5 6 5 6 2 5 7 9 9 7 9 9 9 10 11 11 11 11 11
1 2 2 2 1 1 2 1 2 2 2 3 3 3 4 5 5 3 3 3 4 5 3 4 5 4 3 2 1 2 3 3 4 5 6 5 5 5 6 13 12 12 14 13 7 2 1 3 4 6 7 8 8 6 4 5 6 6 7 8 6 6 7 7 4 6 6 6 4 7 5 7 7 7 9 9 10 10 9 11 12 11 12 12 11 11 11 11
1 2 2 1 1 1 1 3 3 3 5 4 2 3 5 6 6 3 2 2 2 3 3 2 4 6 7 4 0 2 3 3 2 3 4 4 4 5 1 6 6 10 13 8 4 3 1 3 4 4 3 4 5 5 5 6 5 6 9 9 7 8 9 8 6 7 7 8 6 7 8 9 9 9 12 13 13 14 13 11 9 10 11 12 13 13 12 13
2 2 2 1 1 3 4 6 5 4 5 5 3 3 4 5 5 4 3 3 4 3 3 2 4 7 7 5 3 1 2 3 4 4 2 3 5 4 1 3 1 5 10 6 3 3 2 3 4 2 1 1 3 4 3 7 6 5 8 9 9 10 10 9 6 5 6 6 6 7 10 10 9 8 9 9 8 9 9 8 9 11 13 14 14 14 13 14
2 3 3 2 3 5 5 5 4 3 3 3 3 4 3 4 5 4 2 2 3 3 2 4 7 7 5 5 5 3 2 4 7 6 2 2 4 3 1 1 2 4 6 5 4 1 1 3 4 1 3 2 3 3 2 5 7 5 3 4 7 8 6 5 3 3 3 1 2 7 8 8 7 3 4 3 6 8 9 11 12 12 14 15 15 14 14 15
5 7 6 4 4 4 3 3 2 2 2 1 3 3 3 5 6 4 3 6 7 4 3 6 6 5 4 5 5 5 7 10 11 11 8 5 4 3 1 2 3 6 5 5 3 1 2 2 3 4 4 4 4 4 4 4 8 5 0 2 6 7 5 4 3 4 6 4 4 7 5 7 6 3 7 7 9 12 13 13 12 11 13 16 16 16 16 16
8 7 6 4 4 3 3 4 3 2 2 2 3 4 4 7 7 5 4 4 8 9 8 7 5 3 4 7 8 7 8 11 13 12 9 8 8 6 4 5 4 7 7 4 1 1 3 2 1 3 3 4 5 3 4 5 7 1 4 6 7 5 3 2 1 3 6 7 7 5 6 6 4 6 8 8 9 11 13 13 13 13 14 15 16 17 17 17
Wind_Direction
341 339 338 337 333 332 331 329 329 326 326 324 321 319 316 314 315 316 316 315 318 319 322 324 323 321 320 322 323 325 324 322 319 314 301 292 291 275 264 262 256 248 237 259 268 256 260 191 173 156 129 130 169 204 201 180 121 110 120 171 200 185 200 187 196 199 178 251 270 272 268 236 285 313 65 20 34 84 90 40 29 42 62 106 123 130 134 137
342 340 337 336 335 332 329 328 328 327 325 323 322 319 317 317 314 314 314 313 315 316 320 324 325 324 322 324 324 324 323 320 314 296 291 321 317 287 265 252 244 232 233 264 260 215 182 148 177 140 115 145 209 201 195 199 171 166 141 182 212 186 202 203 196 202 192 234 257 266 279 94 262 279 308 179 309 199 120 60 64 78 83 100 112 123 131 137
343 342 338 336 334 331 329 327 327 327 324 323 323 321 319 316 313 312 311 311 313 314 318 321 324 326 324 325 324 325 324 320 311 274 320 11 359 332 297 252 231 218 225 245 253 221 196 160 158 124 113 193 220 180 179 206 196 179 152 194 223 197 215 228 204 214 220 228 249 265 293 320 270 273 334 187 203 234 189 145 100 105 107 106 112 124 132 138
343 341 339 337 333 331 329 327 327 325 324 324 322 321 318 315 313 311 310 311 311 313 316 320 323 325 326 327 324 326 325 316 293 183 41 23 21 7 337 266 218 210 216 219 230 244 207 119 60 99 122 197 265 171 179 212 197 177 191 201 206 186 210 230 218 225 230 227 237 272 308 299 285 328 152 144 135 259 243 126 122 132 127 126 131 134 138 139
341 340 339 336 333 332 330 328 327 326 324 323 321 321 318 316 314 312 312 310 309 312 315 320 323 325 327 326 326 329 331 315 259 123 46 20 21 11 344 277 209 205 205 205 224 236 222 49 77 85 107 172 198 172 213 218 173 187 217 205 187 171 199 229 218 226 235 234 244 271 284 279 296 325 188 166 179 249 228 122 134 142 139 137 138 138 140 134
339 338 338 335 333 331 329 329 328 327 324 322 321 321 318 316 315 313 313 309 310 311 315 321 322 327 327 326 328 325 305 268 315 60 24 4 9 6 356 306 200 197 200 202 223 214 190 126 119 150 138 160 198 204 227 209 182 224 234 203 191 180 195 227 212 220 230 232 238 244 263 287 304 298 231 154 202 239 135 133 138 136 131 129 130 133 133 130
337 337 337 335 333 330 330 330 328 328 326 325 322 320 318 316 315 314 312 310 310 309 314 318 321 328 327 331 332 305 177 270 277 258 309 333 346 355 2 357 186 189 193 195 209 194 158 146 165 165 144 174 214 219 233 218 214 231 238 207 204 202 205 229 225 221 219 220 229 240 290 284 270 280 21 63 54 124 127 129 127 119 119 123 124 128 129 130
334 335 335 334 332 330 330 329 329 329 328 328 323 321 320 317 314 313 312 311 310 309 311 315 322 329 329 334 333 293 229 253 254 256 290 307 319 337 1 21 153 184 185 190 198 181 158 163 178 163 159 206 204 202 209 219 247 232 228 222 205 211 216 232 242 241 225 216 231 269 281 259 235 201 78 88 105 123 124 120 118 118 122 127 128 131 132 134
331 334 335 335 332 329 328 327 329 328 329 329 326 325 323 319 315 312 312 310 309 308 308 313 319 327 329 325 319 292 257 251 261 276 288 297 310 324 351 20 76 188 187 196 200 182 179 176 187 180 168 209 205 186 180 186 235 225 205 221 233 228 229 228 240 247 238 219 222 262 271 263 227 125 84 112 140 137 126 123 124 127 130 132 133 138 142 147
331 335 335 333 332 329 327 327 327 326 327 328 326 325 323 320 316 312 312 308 307 305 305 311 315 325 327 313 290 269 263 264 277 275 280 299 315 320 330 356 10 299 226 213 206 190 181 182 198 193 146 218 217 208 183 188 238 225 178 210 235 242 254 230 232 248 247 232 211 222 254 262 258 130 114 140 162 154 129 128 132 132 135 138 141 147 152 159
330 333 332 331 331 329 327 326 325 325 326 327 326 323 320 317 314 311 310 306 305 303 303 306 311 322 318 303 263 248 252 272 278 290 300 305 311 314 311 314 330 327 297 255 221 205 193 208 219 187 214 226 219 239 222 215 270 265 191 215 237 239 256 243 244 250 233 233 207 195 237 259 330 83 161 157 169 166 136 133 137 134 137 143 147 153 157 166
330 330 328 328 328 328 327 325 323 324 324 324 323 321 318 314 311 308 306 304 303 301 302 303 309 320 310 287 242 239 246 281 293 303 304 302 304 303 301 299 305 304 285 278 252 227 206 212 228 231 240 237 197 230 261 264 283 255 211 227 248 244 253 241 242 239 186 222 204 171 236 261 331 94 158 150 161 159 136 133 135 136 140 144 148 155 161 169
329 327 326 326 325 325 325 323 323 323 321 321 320 318 315 311 308 304 302 302 300 296 298 300 302 309 306 271 250 253 265 287 297 301 298 297 297 291 289 288 288 284 266 256 260 252 221 214 215 229 284 315 208 232 300 304 299 248 204 195 242 258 255 236 226 215 183 216 191 149 232 257 249 245 167 146 145 139 134 134 134 138 143 148 153 157 167 177
326 326 328 328 325 322 321 323 325 321 319 320 318 315 309 307 305 299 296 296 293 291 292 296 296 297 284 259 272 276 283 290 289 290 288 287 291 287 279 273 276 274 263 256 254 256 235 215 205 227 280 234 242 308 337 336 336 215 177 165 207 223 243 237 205 178 185 222 176 156 229 248 250 242 167 147 148 145 139 140 140 142 146 153 163 162 173 186
328 330 333 332 326 321 319 321 325 322 318 317 315 312 310 307 304 297 292 288 286 286 286 291 287 284 288 271 279 292 302 284 279 289 293 283 280 282 274 268 268 260 257 256 251 252 226 200 186 211 258 207 206 312 343 338 335 166 181 197 208 210 242 269 222 170 188 224 158 166 222 252 250 220 170 151 151 149 141 147 149 148 152 158 170 169 171 181
331 332 335 334 327 322 319 320 324 322 317 315 313 311 309 305 304 301 290 281 280 279 279 289 280 247 240 277 291 305 290 259 283 307 315 284 261 257 269 280 282 267 267 261 247 239 202 173 163 193 222 204 171 154 32 339 306 259 201 207 208 203 208 266 263 186 188 200 171 186 192 187 223 182 174 161 149 149 144 151 156 157 161 162 173 179 173 172
331 332 332 333 329 323 320 320 323 321 316 315 314 311 307 303 302 296 280 273 273 270 265 264 263 228 241 275 302 308 286 287 308 316 315 298 268 253 260 279 293 285 296 289 243 213 180 160 158 178 190 211 159 126 129 227 238 236 202 204 212 186 171 213 279 231 180 188 203 195 173 213 220 165 170 168 152 156 154 157 162 163 164 168 179 186 180 177
330 329 328 329 327 323 321 320 321 320 317 313 312 311 308 305 301 283 265 266 269 270 269 254 250 253 248 261 279 292 309 314 313 306 301 296 268 245 233 207 310 322 328 311 215 172 161 162 156 153 174 195 180 163 190 210 207 196 175 175 183 136 164 198 243 227 170 189 203 162 147 251 177 155 163 163 158 164 166 162 162 164 168 175 184 186 183 182
329 327 326 326 325 322 318 318 319 319 319 315 315 317 314 315 319 281 247 251 231 221 266 218 188 205 287 269 251 282 309 309 305 297 291 286 238 222 214 200 337 33 153 251 193 172 163 147 146 171 191 196 201 194 194 192 141 163 159 148 158 154 191 207 226 217 166 180 204 172 161 165 155 162 166 164 161 160 164 161 160 166 172 178 183 182 179 176
328 325 324 323 322 322 317 317 318 318 322 319 321 330 341 5 6 351 332 213 210 233 254 230 200 231 287 287 280 312 317 310 301 278 279 282 191 173 184 178 111 129 197 187 187 185 161 158 189 201 205 202 202 191 194 259 86 131 123 139 165 175 217 224 230 231 168 166 215 183 154 157 163 167 167 160 155 160 168 168 171 174 174 176 176 175 173 168
326 325 323 321 322 323 319 317 316 317 320 317 321 339 35 358 341 332 323 273 240 235 249 248 231 240 259 267 279 318 326 315 306 283 283 280 179 152 177 164 143 187 201 178 196 184 153 195 215 210 206 196 185 161 178 245 262 122 113 144 172 182 215 230 226 239 186 163 240 138 136 158 166 151 147 156 165 186 183 175 177 177 173 172 171 172 167 157
325 324 321 322 324 326 322 316 316 317 316 318 325 332 205 293 310 309 303 286 265 230 237 246 238 248 254 257 266 280 290 289 301 297 288 257 174 176 184 160 167 187 170 172 218 183 189 220 218 197 162 135 147 155 167 217 240 215 149 139 188 217 221 249 250 328 24 144 182 150 136 149 155 118 134 168 177 196 199 194 186 175 171 173 176 171 163 159
323 320 320 322 323 326 322 315 317 316 313 321 315 259 283 322 326 316 291 283 288 232 223 237 229 237 250 256 253 224 214 231 271 286 276 180 179 189 174 173 179 166 167 194 195 182 201 225 191 143 135 146 160 167 162 191 229 225 175 139 215 241 172 221 248 23 28 92 139 135 121 131 127 98 130 176 178 170 196 218 204 187 185 183 182 174 169 171
321 319 318 319 321 323 320 318 318 309 307 316 299 273 322 336 332 323 290 271 292 252 224 231 225 227 243 254 214 181 203 211 216 263 261 164 170 181 181 181 166 170 203 203 202 207 228 248 147 139 159 173 176 176 165 177 212 220 190 152 189 232 195 204 189 92 42 47 105 109 86 56 152 149 171 168 160 161 185 207 202 208 208 191 189 186 183 181
324 320 318 319 321 319 319 320 316 306 313 311 287 291 338 343 335 319 278 287 289 272 244 232 221 233 243 235 174 169 201 226 218 240 258 187 190 191 186 181 166 200 210 196 205 227 253 271 155 153 175 184 186 195 184 179 189 220 206 168 174 193 218 224 169 136 75 10 266 117 90 285 180 187 195 165 168 175 186 203 206 205 199 194 193 190 192 188
329 322 321 323 319 317 322 322 307 318 317 298 265 313 328 346 351 306 170 338 292 276 305 248 182 230 243 188 159 146 24 256 227 224 239 248 226 205 196 195 184 207 200 175 219 227 229 250 188 166 177 184 199 210 198 177 165 222 208 172 173 174 184 197 171 160 141 210 239 133 142 220 203 213 200 170 179 184 187 205 211 205 197 197 196 190 192 186
336 328 324 325 320 318 320 307 308 317 310 279 306 320 317 341 354 186 103 9 288 268 208 274 161 229 256 175 163 144 145 262 219 202 212 220 231 261 223 202 176 200 173 147 224 205 180 216 227 190 177 182 206 211 200 176 158 231 204 163 165 172 187 202 167 172 194 161 155 132 129 148 214 219 187 170 180 184 195 212 213 206 202 201 199 197 194 186
336 333 328 323 317 310 299 296 301 298 287 302 323 327 323 334 296 185 71 51 269 288 40 285 258 273 293 171 174 183 232 251 150 189 189 191 204 254 228 213 174 179 173 173 215 195 169 202 216 196 184 196 208 200 180 165 164 228 184 151 160 174 185 200 187 204 182 102 176 239 148 128 246 223 166 172 186 191 202 211 210 203 202 203 199 199 197 190
330 330 325 321 311 301 293 285 271 266 298 319 331 330 324 331 202 102 76 115 271 44 69 321 316 303 336 135 190 249 294 326 128 197 161 173 193 182 208 220 156 153 189 195 214 214 179 199 200 188 201 208 197 181 162 161 187 211 147 121 124 152 172 184 195 205 115 98 229 221 175 164 268 225 171 178 196 206 208 209 206 200 201 205 201 196 196 190
327 324 320 317 305 295 289 273 261 263 301 322 324 324 318 6 59 62 82 255 294 358 339 325 352 316 358 62 245 267 272 277 313 349 116 145 181 189 226 220 122 93 199 199 211 242 239 192 187 189 208 200 157 161 161 164 187 172 114 100 86 61 56 124 140 104 100 254 237 201 181 183 239 231 188 190 204 206 203 198 197 198 201 203 200 196 194 188
323 320 316 310 295 285 280 276 261 243 320 328 319 322 332 28 60 118 159 263 285 334 335 329 336 322 357 8 307 251 245 265 300 56 148 128 151 184 218 187 121 80 62 190 199 239 261 221 200 188 178 162 143 171 170 162 184 167 114 128 120 357 352 35 25 62 166 243 242 195 181 184 220 235 195 207 218 208 198 196 193 194 198 198 194 192 192 188
321 316 309 298 282 264 249 245 199 155 5 331 321 340 58 50 23 203 244 297 284 322 341 309 315 323 334 334 285 226 223 253 243 155 187 161 153 194 206 185 166 134 182 201 177 217 251 241 238 209 168 168 161 175 170 162 186 180 127 132 150 191 226 197 241 157 216 247 238 181 170 184 234 236 204 209 215 207 202 203 195 192 193 191 187 186 187 187
321 315 305 295 278 252 241 241 224 207 304 319 326 32 77 84 255 224 244 291 261 256 272 253 276 296 309 314 282 221 209 233 210 154 203 182 158 202 223 219 225 174 175 179 158 185 242 279 247 213 187 178 174 177 183 180 184 183 164 155 166 160 165 198 210 218 243 255 253 172 162 192 270 257 223 210 206 205 207 205 195 191 190 185 182 181 182 185
323 316 308 298 274 249 240 239 234 225 255 294 46 57 68 102 243 235 254 255 236 252 261 286 298 295 286 263 251 225 195 235 216 162 176 176 166 198 218 224 224 207 117 146 158 177 201 244 216 204 191 175 184 191 171 148 167 184 155 134 161 163 167 193 194 198 230 249 275 140 156 190 204 243 255 222 207 201 192 177 156 164 175 172 174 177 181 185
326 321 313 298 264 252 238 220 208 195 202 184 65 72 138 226 243 239 246 247 288 315 300 303 298 294 293 252 243 232 190 214 211 182 185 187 189 198 204 216 213 200 141 160 182 181 191 237 233 212 207 176 182 190 140 125 160 187 121 126 185 182 153 165 181 178 181 204 234 155 189 221 202 255 301 238 196 174 138 128 132 146 160 162 173 184 185 186
333 333 324 300 269 257 219 191 180 176 177 108 71 121 217 228 221 204 232 275 354 336 310 301 271 243 297 291 253 225 196 200 189 185 218 202 204 210 207 220 199 193 195 170 185 181 182 255 270 191 208 199 176 172 168 161 165 164 153 174 193 153 124 110 223 180 112 167 245 182 216 292 295 296 329 118 168 160 141 145 151 158 164 169 182 188 187 186
337 335 319 294 291 253 189 177 168 168 162 102 103 216 226 238 218 197 216 49 87 282 298 302 243 196 289 288 301 220 183 197 175 172 212 210 219 211 205 223 184 189 210 194 243 209 161 252 274 180 199 227 174 161 184 183 147 148 195 188 117 89 101 93 205 309 69 178 265 318 196 252 210 246 336 116 157 165 160 160 160 164 171 179 187 187 187 184
329 316 293 294 300 198 178 171 163 160 139 112 228 247 232 230 226 221 245 164 149 249 265 268 210 139 312 284 322 336 178 190 170 171 207 215 238 207 192 213 197 194 211 195 218 294 150 230 277 195 186 209 147 153 187 205 175 166 182 162 123 140 193 152 173 194 133 183 271 325 297 249 200 195 184 166 173 177 172 168 170 176 183 186 184 183 185 179
327 301 294 330 323 188 173 165 159 150 129 181 232 249 230 247 260 259 255 213 184 245 260 251 207 246 316 277 303 315 240 206 171 175 196 186 232 219 186 192 204 204 206 181 178 280 7 144 273 227 177 166 138 166 189 207 207 183 129 150 165 172 181 188 170 164 177 182 203 308 334 275 233 207 186 185 183 177 175 178 186 189 188 185 181 182 182 176
329 308 316 345 304 181 162 154 153 156 186 204 234 238 246 273 273 259 232 206 208 236 251 252 206 224 302 301 296 286 284 288 186 183 195 179 210 242 197 179 192 205 192 172 181 240 332 171 246 280 171 157 186 206 192 193 196 185 158 173 187 172 148 188 188 138 149 157 164 167 264 263 250 204 189 193 186 179 180 184 192 194 186 182 182 181 179 174
319 328 330 353 173 163 150 145 164 193 208 243 249 238 258 269 270 275 242 200 205 231 240 266 254 237 282 302 303 280 290 312 228 191 218 195 196 243 211 181 188 197 168 172 196 200 201 209 223 274 174 179 208 215 187 183 176 167 180 192 185 162 124 162 214 231 121 154 176 157 194 261 255 191 189 196 188 184 185 186 192 192 182 180 181 180 176 172
305 322 321 297 178 159 146 161 217 206 236 252 255 257 277 272 265 282 263 199 207 232 226 235 242 236 246 245 247 261 263 274 241 204 222 208 200 225 214 180 187 191 153 179 216 190 163 176 295 261 227 203 224 244 168 167 145 138 188 194 161 146 124 150 200 229 163 177 152 124 173 261 263 214 194 194 191 192 191 189 189 184 178 176 175 175 173 169
292 309 318 264 179 160 138 266 209 229 245 260 292 276 277 279 268 282 281 221 221 232 211 214 225 218 222 219 216 241 243 236 239 221 220 222 213 220 207 176 183 191 165 184 211 188 172 206 278 285 291 208 259 6 134 156 137 134 212 186 147 168 166 158 178 184 180 192 147 118 230 263 281 287 210 168 167 180 189 188 178 167 168 171 171 172 169 166
294 281 321 239 173 161 133 259 223 266 258 273 289 274 272 268 257 265 268 232 220 224 221 233 221 209 220 215 213 238 262 264 266 247 227 243 237 216 195 178 181 187 196 199 177 181 204 191 182 275 358 110 150 96 112 166 169 173 205 190 171 165 145 132 130 146 184 206 160 146 217 250 279 323 91 119 115 123 155 166 159 159 165 169 172 171 166 163
309 240 250 357 175 179 213 222 226 274 283 293 289 284 281 266 251 252 248 242 236 226 236 250 240 246 251 235 231 250 247 217 233 273 256 244 270 230 182 177 185 188 205 214 144 145 195 174 146 177 158 156 179 183 174 181 179 179 186 185 183 160 144 149 133 140 196 220 154 152 202 250 294 359 115 131 127 130 145 146 150 163 168 171 172 167 163 162
324 300 300 337 188 206 237 226 209 245 280 295 287 283 270 259 277 260 241 247 241 223 233 258 257 269 262 242 253 266 244 210 213 271 299 277 278 260 165 171 189 194 204 214 190 107 133 194 172 172 180 186 191 210 223 162 149 177 175 161 160 143 139 132 116 159 189 167 168 208 197 217 276 255 154 160 156 154 158 157 161 166 167 171 170 164 161 161
322 337 336 333 301 261 256 231 185 205 263 290 295 294 274 278 304 292 233 234 232 214 222 243 235 240 251 237 266 285 278 258 221 240 278 268 265 276 180 170 184 193 197 212 222 145 66 287 233 186 199 206 190 200 210 153 152 174 158 147 149 141 133 130 156 198 165 130 222 253 189 183 233 219 189 182 168 166 175 175 172 167 165 167 163 158 160 159
343 339 348 15 304 261 287 275 232 231 254 256 273 290 283 286 295 287 253 277 283 221 205 251 243 234 244 243 5 293 285 312 277 245 273 276 292 315 217 152 167 188 188 196 211 158 130 281 243 199 239 232 202 213 195 150 153 169 159 158 158 151 153 162 193 206 159 151 220 228 176 192 223 211 199 192 178 178 181 172 160 153 156 160 159 160 164 163
348 325 327 53 307 262 265 270 272 277 262 238 233 258 266 277 274 258 253 308 319 263 197 269 272 241 242 230 177 233 303 341 313 273 287 313 314 327 80 102 91 184 180 183 190 158 139 262 245 201 13 252 230 253 191 136 136 166 173 171 165 164 173 175 190 203 165 167 200 176 177 214 228 204 203 201 176 166 153 137 140 152 159 162 164 166 168 168
13 313 316 346 288 267 257 265 278 295 270 231 236 248 236 253 263 265 238 213 276 294 193 221 256 255 255 234 190 186 284 290 273 256 243 321 312 304 142 155 171 153 156 178 198 167 126 243 256 104 85 306 311 349 66 121 134 158 182 162 147 149 154 154 168 177 146 153 165 146 172 235 251 187 142 108 112 124 137 151 159 163 164 165 167 171 173 174
334 293 298 310 296 284 282 291 279 276 287 236 232 249 243 254 259 274 266 209 205 231 211 211 253 282 291 271 236 209 221 234 241 242 235 231 246 251 263 245 174 144 152 187 195 159 139 224 306 59 75 298 309 35 45 85 108 115 125 135 139 144 157 177 191 181 169 157 106 110 160 239 252 136 112 123 142 151 161 167 164 166 170 169 172 176 178 179
329 299 298 297 286 290 310 316 313 305 302 240 243 268 264 265 266 269 288 243 211 222 232 235 265 309 305 287 268 237 226 231 238 244 240 229 232 235 247 260 214 148 155 188 190 160 151 128 17 73 91 282 296 10 49 87 98 120 243 191 167 172 182 178 192 195 177 152 129 146 201 222 193 139 133 144 158 168 176 175 170 172 175 177 179 179 180 183